QPF
0.00 0.00 0.00 0.00 0.00 0.00 0.00 0.00 0.00 0.00 0.00 0.00 0.00 0.00 0.00 0.00 0.00 0.00 0.00 0.00 0.00 0.00 0.00 0.00 0.00 0.00 0.00 0.00 0.00 0.00 0.00 0.00 0.00 0.00 0.00 0.00 0.00 0.00 0.00 0.00 0.00 0.01 0.01
0.00 0.00 0.00 0.00 0.00 0.00 0.00 0.00 0.00 0.00 0.00 0.00 0.00 0.00 0.00 0.00 0.00 0.00 0.00 0.00 0.00 0.00 0.00 0.00 0.00 0.00 0.00 0.00 0.00 0.00 0.00 0.00 0.00 0.00 0.00 0.00 0.00 0.00 0.00 0.00 0.00 0.00 0.00
0.00 0.00 0.00 0.00 0.00 0.00 0.00 0.00 0.00 0.00 0.00 0.00 0.00 0.00 0.00 0.00 0.00 0.00 0.00 0.00 0.00 0.00 0.00 0.00 0.00 0.00 0.00 0.00 0.00 0.00 0.00 0.00 0.00 0.00 0.00 0.00 0.00 0.00 0.00 0.00 0.00 0.00 0.00
0.00 0.00 0.00 0.00 0.00 0.00 0.00 0.00 0.00 0.00 0.00 0.00 0.00 0.00 0.00 0.00 0.00 0.00 0.00 0.00 0.00 0.00 0.00 0.00 0.00 0.00 0.00 0.00 0.00 0.00 0.00 0.00 0.00 0.00 0.00 0.00 0.00 0.00 0.00 0.00 0.00 0.00 0.00
0.00 0.00 0.00 0.00 0.00 0.00 0.00 0.00 0.00 0.00 0.00 0.00 0.00 0.00 0.00 0.00 0.00 0.00 0.00 0.00 0.00 0.00 0.00 0.00 0.00 0.00 0.00 0.00 0.00 0.00 0.00 0.00 0.00 0.00 0.00 0.00 0.00 0.00 0.00 0.00 0.00 0.00 0.00
0.00 0.00 0.00 0.00 0.00 0.00 0.00 0.00 0.00 0.00 0.00 0.00 0.00 0.00 0.00 0.00 0.00 0.00 0.00 0.00 0.00 0.00 0.00 0.00 0.00 0.00 0.00 0.00 0.00 0.00 0.00 0.00 0.00 0.00 0.00 0.00 0.00 0.00 0.00 0.00 0.00 0.00 0.00
0.00 0.00 0.00 0.00 0.00 0.00 0.00 0.00 0.00 0.00 0.00 0.00 0.00 0.00 0.00 0.00 0.00 0.00 0.00 0.00 0.00 0.00 0.00 0.00 0.00 0.00 0.00 0.00 0.00 0.00 0.00 0.00 0.00 0.00 0.00 0.00 0.00 0.00 0.00 0.00 0.00 0.00 0.00
0.00 0.00 0.00 0.00 0.00 0.00 0.00 0.00 0.00 0.00 0.00 0.00 0.00 0.00 0.00 0.00 0.00 0.00 0.00 0.00 0.00 0.00 0.00 0.00 0.00 0.00 0.00 0.00 0.00 0.00 0.00 0.00 0.00 0.00 0.00 0.00 0.00 0.00 0.00 0.00 0.00 0.00 0.00
0.00 0.00 0.00 0.00 0.00 0.00 0.00 0.00 0.00 0.00 0.00 0.00 0.00 0.00 0.00 0.00 0.00 0.00 0.00 0.00 0.00 0.00 0.00 0.00 0.00 0.00 0.00 0.00 0.00 0.00 0.00 0.00 0.00 0.00 0.00 0.00 0.00 0.00 0.00 0.00 0.00 0.00 0.00
0.00 0.00 0.00 0.00 0.00 0.00 0.00 0.00 0.00 0.00 0.00 0.00 0.00 0.00 0.00 0.00 0.00 0.00 0.00 0.00 0.00 0.00 0.00 0.00 0.00 0.00 0.00 0.00 0.00 0.00 0.00 0.00 0.00 0.00 0.00 0.00 0.00 0.00 0.00 0.00 0.00 0.00 0.00
0.00 0.00 0.00 0.00 0.00 0.00 0.00 0.00 0.00 0.00 0.00 0.00 0.00 0.00 0.00 0.00 0.00 0.00 0.00 0.00 0.00 0.00 0.00 0.00 0.00 0.00 0.00 0.00 0.00 0.00 0.00 0.00 0.00 0.00 0.00 0.00 0.00 0.00 0.00 0.00 0.00 0.00 0.00
0.00 0.00 0.00 0.00 0.00 0.00 0.00 0.00 0.00 0.00 0.00 0.00 0.00 0.00 0.00 0.00 0.00 0.00 0.00 0.00 0.00 0.00 0.00 0.00 0.00 0.00 0.00 0.00 0.00 0.00 0.00 0.00 0.00 0.00 0.00 0.00 0.00 0.00 0.00 0.00 0.00 0.00 0.00
0.00 0.00 0.00 0.00 0.00 0.00 0.00 0.00 0.00 0.00 0.00 0.00 0.00 0.00 0.00 0.00 0.00 0.00 0.00 0.00 0.00 0.00 0.00 0.00 0.00 0.00 0.00 0.00 0.00 0.00 0.00 0.00 0.00 0.00 0.00 0.00 0.00 0.00 0.00 0.00 0.00 0.00 0.00
0.00 0.00 0.00 0.00 0.00 0.00 0.00 0.00 0.00 0.00 0.00 0.00 0.00 0.00 0.00 0.00 0.00 0.00 0.00 0.00 0.00 0.00 0.00 0.00 0.00 0.00 0.00 0.00 0.00 0.00 0.00 0.00 0.00 0.00 0.00 0.00 0.00 0.00 0.00 0.00 0.00 0.00 0.00
0.00 0.00 0.00 0.00 0.00 0.00 0.00 0.00 0.00 0.00 0.00 0.00 0.00 0.00 0.00 0.00 0.00 0.00 0.00 0.00 0.00 0.00 0.00 0.00 0.00 0.00 0.00 0.00 0.00 0.00 0.00 0.00 0.00 0.00 0.00 0.00 0.00 0.00 0.00 0.00 0.00 0.00 0.00
0.00 0.00 0.00 0.00 0.00 0.00 0.00 0.00 0.00 0.00 0.00 0.00 0.00 0.00 0.00 0.00 0.00 0.00 0.00 0.00 0.00 0.00 0.00 0.00 0.00 0.00 0.00 0.00 0.00 0.00 0.00 0.00 0.00 0.00 0.00 0.00 0.00 0.00 0.00 0.00 0.00 0.00 0.00
0.00 0.00 0.00 0.00 0.00 0.00 0.00 0.00 0.00 0.00 0.00 0.00 0.00 0.00 0.00 0.00 0.00 0.00 0.00 0.00 0.00 0.00 0.00 0.00 0.00 0.00 0.00 0.00 0.00 0.00 0.00 0.00 0.00 0.00 0.00 0.00 0.00 0.00 0.00 0.00 0.00 0.00 0.00
0.00 0.00 0.00 0.00 0.00 0.00 0.00 0.00 0.00 0.00 0.00 0.00 0.00 0.00 0.00 0.00 0.00 0.00 0.00 0.00 0.00 0.00 0.00 0.00 0.00 0.00 0.00 0.00 0.00 0.00 0.00 0.00 0.00 0.00 0.00 0.00 0.00 0.00 0.00 0.00 0.00 0.00 0.00
0.00 0.00 0.00 0.00 0.00 0.00 0.00 0.00 0.00 0.00 0.00 0.00 0.00 0.00 0.00 0.00 0.00 0.00 0.00 0.00 0.00 0.00 0.00 0.00 0.00 0.00 0.00 0.00 0.00 0.00 0.00 0.00 0.00 0.00 0.00 0.00 0.00 0.00 0.00 0.00 0.00 0.00 0.00
0.00 0.00 0.00 0.00 0.00 0.00 0.00 0.00 0.00 0.00 0.00 0.00 0.00 0.00 0.00 0.00 0.00 0.00 0.00 0.00 0.00 0.00 0.00 0.00 0.00 0.00 0.00 0.00 0.00 0.00 0.00 0.00 0.00 0.00 0.00 0.00 0.00 0.00 0.00 0.00 0.01 0.03 0.00
0.00 0.00 0.00 0.00 0.00 0.00 0.00 0.00 0.00 0.00 0.00 0.00 0.00 0.00 0.00 0.00 0.00 0.00 0.00 0.00 0.00 0.00 0.00 0.00 0.00 0.00 0.00 0.00 0.00 0.00 0.00 0.00 0.00 0.00 0.00 0.00 0.00 0.00 0.00 0.00 0.00 0.01 0.00
0.00 0.00 0.00 0.00 0.00 0.00 0.00 0.00 0.00 0.00 0.00 0.00 0.00 0.00 0.00 0.00 0.00 0.00 0.00 0.00 0.00 0.00 0.00 0.00 0.00 0.00 0.00 0.00 0.00 0.00 0.00 0.00 0.00 0.00 0.00 0.00 0.00 0.00 0.00 0.00 0.00 0.00 0.02
0.00 0.00 0.00 0.00 0.00 0.00 0.00 0.00 0.00 0.00 0.00 0.00 0.00 0.00 0.00 0.00 0.00 0.00 0.00 0.00 0.00 0.00 0.00 0.00 0.00 0.00 0.00 0.00 0.00 0.00 0.00 0.00 0.00 0.00 0.00 0.00 0.00 0.00 0.00 0.00 0.00 0.01 0.05
0.00 0.00 0.00 0.00 0.00 0.00 0.00 0.00 0.00 0.00 0.00 0.00 0.00 0.00 0.00 0.00 0.00 0.00 0.00 0.00 0.00 0.00 0.00 0.00 0.00 0.00 0.00 0.00 0.00 0.00 0.00 0.00 0.00 0.00 0.00 0.00 0.00 0.00 0.00 0.01 0.01 0.02 0.03
0.00 0.00 0.00 0.00 0.00 0.00 0.00 0.00 0.00 0.00 0.00 0.00 0.00 0.00 0.00 0.00 0.00 0.00 0.00 0.00 0.00 0.00 0.00 0.00 0.00 0.00 0.00 0.00 0.00 0.00 0.00 0.00 0.00 0.00 0.00 0.00 0.00 0.00 0.03 0.02 0.01 0.00 0.01
0.00 0.00 0.00 0.00 0.00 0.00 0.00 0.00 0.00 0.00 0.00 0.00 0.00 0.00 0.00 0.00 0.00 0.00 0.00 0.00 0.00 0.00 0.00 0.00 0.00 0.00 0.00 0.00 0.00 0.00 0.01 0.00 0.00 0.00 0.00 0.00 0.00 0.01 0.00 0.01 0.01 0.01 0.00
MSLP
1027.99 1028.32 1028.87 1029.11 1029.27 1029.53 1029.51 1029.61 1029.56 1029.52 1029.61 1029.75 1029.57 1029.37 1029.43 1029.60 1029.64 1029.50 1029.22 1029.04 1028.98 1028.93 1028.97 1028.97 1028.65 1028.28 1028.18 1027.86 1027.56 1027.17 1026.53 1025.78 1025.30 1024.40 1023.33 1022.74 1022.22 1021.96 1022.14 1021.98 1022.07 1021.97 1021.83
1027.86 1028.16 1028.55 1029.08 1029.37 1029.53 1029.61 1029.60 1029.65 1029.65 1029.51 1029.50 1029.55 1029.46 1029.49 1029.48 1029.35 1029.24 1029.16 1028.98 1028.90 1028.86 1028.79 1028.94 1028.90 1028.62 1028.51 1028.28 1028.17 1027.75 1027.40 1026.75 1026.19 1026.05 1025.09 1024.53 1023.29 1022.61 1022.74 1022.50 1022.39 1022.56 1022.17
1027.37 1027.92 1028.53 1028.89 1029.36 1029.65 1029.69 1029.63 1029.83 1029.75 1029.60 1029.48 1029.33 1029.37 1029.57 1029.52 1029.68 1029.57 1029.36 1029.06 1028.69 1028.70 1028.60 1028.59 1028.67 1028.64 1028.63 1028.62 1028.39 1028.18 1027.87 1027.66 1026.91 1026.62 1026.80 1026.36 1025.85 1024.57 1023.34 1023.36 1023.27 1023.07 1022.68
1026.63 1027.30 1028.11 1028.75 1029.20 1029.49 1029.39 1029.50 1029.68 1029.66 1029.46 1029.58 1029.95 1030.01 1030.28 1030.28 1030.06 1029.73 1029.25 1029.10 1028.80 1028.60 1028.48 1028.41 1028.29 1028.24 1028.37 1028.39 1028.26 1027.87 1027.97 1027.91 1027.77 1027.20 1026.82 1026.88 1026.99 1026.25 1025.07 1024.07 1023.86 1023.63 1023.24
1025.85 1026.77 1027.41 1027.87 1028.44 1028.84 1029.19 1029.29 1029.30 1029.35 1029.24 1029.33 1029.39 1029.70 1029.94 1029.87 1029.64 1029.52 1029.42 1029.20 1028.79 1028.57 1028.52 1028.29 1028.06 1027.94 1027.87 1027.94 1027.86 1027.79 1027.81 1027.79 1027.82 1027.71 1027.38 1027.09 1026.65 1026.34 1026.38 1025.20 1024.47 1024.11 1023.72
1025.47 1026.01 1026.65 1027.34 1028.19 1028.62 1028.98 1029.21 1029.39 1029.55 1029.33 1029.30 1029.39 1029.52 1029.73 1029.73 1029.72 1029.57 1029.61 1029.50 1029.10 1028.69 1028.51 1028.33 1028.06 1027.86 1027.67 1027.57 1027.46 1027.29 1027.26 1027.33 1027.33 1027.28 1027.15 1027.19 1027.05 1026.65 1026.33 1025.83 1025.14 1024.71 1024.10
1024.73 1025.70 1026.52 1027.46 1028.09 1028.57 1028.98 1029.12 1029.12 1029.11 1029.16 1029.43 1029.79 1029.89 1029.96 1030.01 1030.12 1030.05 1029.81 1029.69 1029.54 1029.29 1029.18 1028.90 1028.64 1028.29 1027.85 1027.45 1027.14 1026.93 1026.87 1026.85 1026.81 1026.76 1026.72 1026.56 1026.42 1026.21 1025.88 1025.58 1025.17 1024.74 1024.15
1024.12 1025.04 1025.94 1026.94 1027.48 1028.10 1028.63 1028.76 1029.03 1029.42 1029.53 1029.62 1029.95 1030.08 1030.20 1030.40 1030.49 1030.43 1030.21 1030.11 1030.06 1029.82 1029.58 1029.20 1028.84 1028.52 1028.08 1027.63 1027.25 1026.98 1026.70 1026.42 1026.28 1026.19 1026.07 1025.89 1025.65 1025.45 1025.34 1025.31 1024.97 1024.37 1024.18
1023.68 1024.64 1025.44 1026.33 1027.19 1027.81 1028.11 1028.43 1028.76 1029.27 1029.69 1029.95 1030.09 1030.14 1030.21 1030.64 1030.95 1030.82 1030.60 1030.51 1030.27 1029.77 1029.84 1029.54 1029.27 1028.91 1028.56 1028.20 1027.87 1027.57 1027.22 1026.64 1026.35 1025.95 1025.55 1025.33 1024.97 1024.73 1024.54 1024.43 1024.34 1024.21 1023.61
1023.65 1024.41 1025.22 1026.13 1026.74 1027.22 1028.05 1028.66 1029.03 1029.55 1029.77 1030.12 1030.44 1030.68 1030.92 1030.87 1030.90 1031.07 1031.14 1031.00 1030.72 1030.45 1030.24 1030.02 1029.70 1029.34 1029.03 1028.76 1028.42 1028.04 1027.45 1027.21 1027.14 1026.91 1026.62 1026.24 1025.74 1025.04 1024.32 1023.69 1023.45 1023.39 1023.18
1023.59 1024.39 1025.14 1025.78 1026.73 1027.60 1028.25 1028.75 1029.22 1029.68 1030.10 1030.39 1030.76 1030.96 1031.12 1031.27 1031.34 1031.43 1031.40 1031.34 1031.13 1030.81 1030.60 1030.31 1029.94 1029.65 1029.41 1029.12 1028.77 1028.45 1028.31 1028.06 1027.77 1027.42 1027.23 1026.74 1026.34 1025.81 1025.27 1024.61 1023.74 1022.97 1022.52
1023.80 1024.52 1025.41 1026.43 1027.32 1028.12 1028.77 1029.28 1029.67 1030.03 1030.44 1030.82 1031.11 1031.32 1031.28 1031.24 1031.44 1031.42 1031.32 1031.19 1031.10 1030.87 1030.69 1030.46 1030.24 1029.98 1029.66 1029.35 1029.07 1028.73 1028.46 1028.21 1027.89 1027.57 1027.21 1026.81 1026.30 1025.89 1025.46 1024.96 1024.54 1023.98 1023.24
1024.58 1025.43 1026.28 1027.06 1027.90 1028.61 1029.25 1029.78 1030.20 1030.60 1030.92 1031.26 1031.49 1031.62 1031.65 1031.57 1031.57 1031.61 1031.52 1031.22 1031.06 1030.94 1030.77 1030.62 1030.44 1030.07 1029.74 1029.33 1028.87 1028.56 1028.28 1027.94 1027.63 1027.32 1027.09 1026.72 1026.31 1025.73 1025.34 1024.99 1024.35 1023.63 1022.88
1025.16 1026.19 1027.12 1027.91 1028.58 1029.12 1029.68 1030.23 1030.69 1030.91 1031.24 1031.49 1031.68 1031.75 1031.68 1031.63 1031.75 1031.68 1031.57 1031.41 1031.21 1031.01 1030.81 1030.59 1030.30 1029.98 1029.55 1029.13 1028.48 1028.02 1027.79 1027.61 1027.44 1027.18 1026.83 1026.49 1025.99 1025.51 1025.17 1024.80 1024.20 1023.55 1023.12
1025.82 1026.73 1027.71 1028.49 1029.18 1029.74 1030.10 1030.55 1030.94 1031.25 1031.49 1031.63 1031.72 1031.71 1031.66 1031.59 1031.68 1031.75 1031.68 1031.46 1031.18 1030.88 1030.64 1030.38 1030.16 1030.02 1029.58 1028.70 1028.48 1028.43 1028.07 1027.67 1027.24 1026.87 1026.33 1025.87 1025.57 1025.05 1024.70 1024.34 1023.97 1023.66 1023.14
1026.24 1027.19 1028.00 1028.81 1029.49 1030.01 1030.53 1030.99 1031.32 1031.60 1031.69 1031.73 1031.72 1031.59 1031.58 1031.61 1031.66 1031.66 1031.66 1031.36 1031.12 1030.85 1030.56 1030.41 1030.22 1029.87 1029.20 1028.95 1028.89 1028.33 1027.94 1027.47 1027.10 1026.85 1026.48 1025.95 1025.23 1024.61 1024.25 1023.89 1023.46 1023.29 1022.90
1026.70 1027.73 1028.59 1029.34 1029.97 1030.39 1030.84 1031.38 1031.61 1031.71 1031.76 1031.78 1031.63 1031.52 1031.63 1031.63 1031.60 1031.54 1031.41 1031.15 1030.91 1030.63 1030.41 1030.22 1029.94 1029.61 1029.44 1029.10 1028.55 1028.28 1027.91 1027.53 1027.16 1026.65 1026.11 1025.51 1024.67 1024.36 1023.98 1023.54 1022.91 1022.49 1022.10
1027.29 1028.19 1029.03 1029.68 1030.29 1030.81 1031.15 1031.45 1031.61 1031.69 1031.73 1031.68 1031.58 1031.49 1031.45 1031.46 1031.42 1031.38 1031.23 1030.99 1030.65 1030.47 1030.24 1029.93 1029.73 1029.50 1029.12 1028.79 1028.46 1028.22 1027.79 1027.31 1026.82 1026.27 1025.75 1025.27 1024.75 1024.22 1023.78 1023.27 1022.58 1021.69 1021.06
1028.08 1028.91 1029.63 1030.12 1030.56 1030.98 1031.30 1031.46 1031.49 1031.50 1031.45 1031.42 1031.46 1031.37 1031.35 1031.37 1031.33 1031.29 1031.06 1030.73 1030.58 1030.29 1029.98 1029.75 1029.37 1029.12 1028.83 1028.51 1028.15 1027.86 1027.55 1027.06 1026.57 1026.03 1025.74 1025.17 1024.45 1023.72 1023.29 1022.97 1022.13 1021.07 1019.84
1028.66 1029.45 1030.00 1030.37 1030.74 1031.04 1031.24 1031.36 1031.44 1031.45 1031.40 1031.45 1031.40 1031.27 1031.15 1031.08 1031.00 1030.81 1030.61 1030.48 1030.17 1029.92 1029.65 1029.38 1029.24 1028.92 1028.71 1028.32 1027.84 1027.44 1027.08 1026.65 1026.19 1025.70 1025.02 1024.42 1023.98 1023.22 1022.66 1022.36 1021.59 1020.40 1018.76
1029.36 1029.94 1030.38 1030.73 1030.90 1031.04 1031.22 1031.43 1031.49 1031.50 1031.43 1031.26 1031.10 1030.95 1030.82 1030.65 1030.52 1030.35 1030.26 1029.91 1029.65 1029.50 1029.29 1029.09 1028.81 1028.50 1028.25 1027.86 1027.40 1026.95 1026.61 1026.21 1025.65 1025.15 1024.34 1023.71 1023.02 1022.24 1021.53 1020.98 1020.44 1019.52 1018.34
1029.93 1030.33 1030.75 1031.10 1031.12 1031.31 1031.42 1031.56 1031.63 1031.53 1031.28 1031.03 1030.85 1030.69 1030.50 1030.38 1030.21 1030.16 1029.95 1029.75 1029.49 1029.23 1029.07 1028.72 1028.36 1028.07 1027.80 1027.18 1026.81 1026.33 1025.95 1025.55 1025.22 1024.52 1023.80 1023.13 1022.21 1021.39 1020.53 1019.77 1018.84 1018.00 1017.12
1030.34 1030.69 1031.18 1031.43 1031.52 1031.51 1031.60 1031.75 1031.69 1031.46 1031.28 1031.12 1031.05 1030.92 1030.73 1030.48 1030.29 1029.97 1029.71 1029.41 1029.24 1029.06 1028.79 1028.45 1027.98 1027.51 1027.05 1026.52 1026.02 1025.50 1025.04 1024.64 1024.32 1023.82 1023.09 1022.37 1021.54 1020.72 1019.74 1018.73 1017.75 1016.93 1016.06
1031.01 1031.41 1031.63 1031.84 1032.06 1032.03 1031.93 1031.88 1031.73 1031.67 1031.65 1031.59 1031.39 1031.11 1030.82 1030.56 1030.25 1029.91 1029.57 1029.33 1029.07 1028.78 1028.41 1028.02 1027.53 1027.06 1026.51 1025.89 1025.51 1025.01 1024.49 1023.77 1023.30 1022.88 1022.39 1021.77 1021.04 1020.14 1019.23 1018.01 1017.04 1016.28 1015.55
1031.68 1032.03 1032.28 1032.50 1032.54 1032.39 1032.27 1032.13 1032.16 1032.06 1031.90 1031.63 1031.30 1030.98 1030.87 1030.62 1030.15 1029.75 1029.35 1029.06 1028.65 1028.20 1027.86 1027.61 1027.08 1026.45 1025.80 1025.08 1024.48 1023.97 1023.34 1022.89 1022.53 1022.13 1021.64 1020.98 1020.36 1019.50 1018.63 1017.75 1016.81 1016.00 1015.26
1032.50 1032.75 1032.95 1033.08 1033.15 1032.88 1032.67 1032.59 1032.47 1032.18 1031.88 1031.74 1031.52 1031.41 1031.07 1030.66 1030.13 1029.67 1029.04 1028.61 1028.30 1027.72 1027.17 1026.67 1026.26 1025.70 1025.06 1024.36 1023.62 1022.95 1022.44 1022.18 1021.96 1021.59 1021.21 1020.61 1019.95 1019.24 1018.48 1017.73 1016.91 1015.99 1015.41
Thickness
5653 5650 5646 5640 5638 5633 5632 5627 5625 5622 5619 5614 5612 5610 5605 5601 5598 5594 5591 5590 5587 5584 5581 5579 5579 5579 5578 5578 5578 5579 5582 5586 5587 5589 5595 5596 5599 5602 5599 5599 5598 5596 5596
5651 5650 5645 5640 5635 5632 5628 5626 5620 5618 5615 5612 5608 5605 5601 5597 5593 5590 5586 5583 5580 5577 5574 5572 5569 5568 5567 5567 5566 5567 5567 5571 5575 5571 5575 5573 5583 5589 5586 5587 5587 5585 5585
5651 5647 5640 5635 5628 5624 5621 5619 5612 5610 5607 5604 5602 5598 5593 5590 5584 5580 5579 5576 5575 5571 5568 5565 5561 5560 5558 5556 5556 5555 5555 5554 5560 5560 5556 5554 5555 5565 5575 5573 5572 5572 5574
5655 5648 5639 5631 5623 5619 5618 5614 5610 5605 5602 5597 5591 5585 5578 5574 5572 5571 5571 5567 5565 5563 5560 5557 5555 5553 5550 5549 5548 5548 5546 5544 5542 5546 5549 5546 5542 5545 5553 5561 5560 5560 5561
5657 5648 5641 5635 5626 5620 5614 5611 5608 5604 5599 5594 5588 5581 5575 5570 5567 5564 5559 5556 5555 5552 5550 5548 5546 5545 5544 5541 5540 5539 5537 5536 5534 5534 5535 5536 5538 5537 5535 5543 5549 5550 5550
5652 5650 5643 5636 5625 5617 5611 5606 5599 5595 5594 5589 5583 5578 5570 5565 5560 5556 5549 5545 5544 5542 5537 5537 5537 5535 5534 5533 5532 5531 5529 5528 5526 5525 5525 5525 5524 5526 5526 5530 5534 5535 5538
5654 5644 5637 5628 5620 5612 5605 5599 5594 5592 5587 5580 5573 5568 5561 5554 5547 5543 5540 5536 5532 5528 5525 5522 5521 5521 5521 5521 5521 5521 5520 5518 5516 5516 5515 5515 5516 5516 5519 5521 5526 5527 5530
5656 5644 5635 5626 5618 5611 5604 5598 5589 5581 5577 5570 5562 5555 5548 5540 5532 5527 5524 5520 5516 5512 5510 5509 5508 5506 5506 5507 5507 5507 5507 5506 5506 5505 5505 5506 5507 5507 5507 5507 5510 5519 5518
5652 5641 5632 5623 5614 5605 5600 5594 5585 5574 5567 5560 5554 5547 5539 5527 5516 5511 5508 5504 5501 5499 5495 5494 5492 5490 5489 5488 5488 5488 5488 5488 5490 5492 5493 5494 5496 5496 5497 5497 5498 5500 5508
5646 5637 5627 5618 5611 5603 5592 5584 5577 5567 5558 5549 5540 5532 5522 5515 5508 5498 5493 5489 5486 5483 5481 5478 5477 5475 5472 5470 5469 5468 5469 5470 5469 5467 5468 5468 5469 5474 5478 5483 5485 5486 5490
5640 5631 5623 5614 5603 5593 5582 5573 5563 5553 5543 5536 5527 5518 5510 5501 5493 5485 5479 5475 5471 5469 5466 5463 5462 5459 5456 5453 5452 5451 5449 5447 5446 5445 5444 5447 5448 5449 5452 5456 5462 5469 5472
5630 5623 5613 5601 5589 5578 5568 5559 5550 5540 5530 5521 5512 5504 5497 5489 5481 5475 5469 5465 5460 5456 5452 5449 5445 5442 5439 5437 5434 5432 5430 5429 5428 5427 5427 5427 5430 5430 5431 5434 5436 5440 5447
5614 5606 5597 5586 5575 5565 5554 5543 5535 5524 5515 5505 5496 5487 5480 5473 5466 5460 5454 5451 5447 5443 5439 5433 5429 5426 5423 5420 5418 5416 5415 5414 5413 5413 5410 5409 5409 5411 5411 5412 5416 5420 5427
5602 5591 5580 5570 5560 5549 5540 5529 5519 5510 5500 5491 5482 5473 5466 5460 5451 5445 5440 5436 5432 5428 5423 5419 5415 5411 5407 5404 5403 5402 5403 5401 5398 5394 5392 5390 5390 5390 5390 5392 5395 5399 5401
5590 5579 5565 5553 5542 5532 5524 5515 5505 5495 5487 5477 5468 5460 5452 5447 5438 5431 5425 5421 5417 5413 5409 5404 5399 5393 5389 5388 5386 5384 5382 5380 5379 5376 5374 5371 5368 5367 5368 5368 5370 5371 5376
5579 5568 5556 5544 5531 5520 5508 5499 5490 5481 5472 5462 5453 5446 5440 5433 5425 5418 5411 5407 5402 5398 5393 5387 5382 5377 5372 5368 5364 5361 5361 5359 5355 5350 5345 5343 5343 5342 5341 5340 5341 5342 5346
5565 5552 5539 5527 5517 5508 5497 5484 5475 5465 5455 5446 5440 5434 5426 5419 5412 5405 5399 5393 5388 5384 5378 5372 5366 5359 5352 5345 5340 5337 5333 5329 5323 5318 5314 5311 5309 5307 5305 5306 5310 5312 5315
5549 5536 5524 5512 5501 5490 5480 5469 5460 5449 5440 5433 5427 5421 5413 5406 5398 5391 5384 5378 5374 5367 5361 5354 5345 5336 5327 5318 5311 5304 5301 5296 5291 5286 5277 5271 5268 5264 5259 5260 5267 5276 5283
5528 5517 5505 5495 5485 5475 5465 5456 5446 5437 5430 5423 5415 5408 5400 5393 5384 5376 5369 5363 5355 5348 5341 5333 5323 5312 5302 5291 5281 5271 5263 5259 5254 5245 5234 5226 5224 5226 5222 5218 5225 5236 5251
5514 5500 5488 5481 5470 5460 5450 5442 5433 5424 5416 5409 5402 5396 5388 5380 5371 5363 5354 5345 5336 5328 5320 5310 5299 5285 5272 5261 5248 5234 5224 5220 5214 5209 5205 5201 5196 5198 5199 5193 5197 5207 5225
5494 5483 5475 5464 5455 5445 5436 5427 5418 5409 5403 5397 5391 5383 5374 5365 5356 5347 5337 5328 5319 5308 5297 5288 5276 5262 5244 5230 5215 5203 5194 5189 5189 5186 5187 5187 5186 5186 5188 5187 5187 5193 5203
5477 5468 5458 5448 5439 5430 5422 5414 5405 5398 5392 5385 5377 5368 5358 5349 5341 5329 5317 5306 5294 5283 5269 5258 5248 5236 5220 5206 5192 5186 5179 5173 5171 5173 5174 5175 5178 5181 5184 5186 5190 5193 5199
5462 5453 5442 5432 5424 5416 5408 5399 5391 5385 5378 5368 5358 5348 5338 5328 5318 5308 5296 5284 5270 5254 5241 5226 5217 5209 5201 5193 5183 5177 5171 5168 5165 5164 5166 5168 5172 5175 5180 5184 5189 5194 5200
5444 5434 5425 5417 5408 5401 5394 5386 5378 5370 5359 5348 5338 5328 5318 5307 5297 5286 5274 5259 5245 5228 5216 5201 5192 5187 5183 5180 5174 5169 5167 5165 5163 5162 5162 5164 5166 5170 5175 5182 5188 5194 5200
5427 5418 5409 5400 5393 5387 5379 5370 5361 5350 5340 5330 5321 5311 5298 5287 5277 5267 5255 5238 5224 5205 5191 5181 5174 5171 5170 5171 5167 5164 5164 5162 5160 5159 5160 5162 5163 5168 5172 5176 5182 5189 5197
5409 5401 5392 5385 5376 5370 5362 5352 5342 5333 5323 5312 5300 5287 5277 5265 5254 5241 5234 5225 5203 5191 5183 5176 5167 5165 5161 5162 5163 5162 5161 5158 5155 5155 5154 5155 5157 5161 5164 5168 5173 5181 5189